| time (UTC) | temp F | wind direction | speed knots | gust knots | rain 1hr in | rain 24hr in | rain mn in | humidity % | barometer mb |
| 20260507090504 | 58 | 122 | 6.1 | 10.4 | 0.00 | 0.00 | 0.00 | 68 | 1014.7 |
| 20260507085504 | 57 | 127 | 4.3 | 8.7 | 0.00 | 0.00 | 0.00 | 70 | 1014.8 |
| 20260507085004 | 57 | 129 | 5.2 | 7.8 | 0.00 | 0.00 | 0.00 | 70 | 1014.7 |
| 20260507084504 | 56 | 140 | 2.6 | 7.0 | 0.00 | 0.00 | 0.00 | 73 | 1014.8 |
| 20260507084003 | 55 | 160 | 2.6 | 7.8 | 0.00 | 0.00 | 0.00 | 70 | 1014.8 |
| 20260507082504 | 53 | 104 | 2.6 | 7.0 | 0.00 | 0.00 | 0.00 | 75 | 1014.8 |
| 20260507081503 | 52 | 103 | 2.6 | 6.1 | 0.00 | 0.00 | 0.00 | 76 | 1014.8 |
| 20260507081004 | 52 | 101 | 2.6 | 7.0 | 0.00 | 0.00 | 0.00 | 76 | 1014.8 |
| 20260507080503 | 52 | 101 | 3.5 | 6.1 | 0.00 | 0.00 | 0.00 | 77 | 1014.8 |
| 20260507080004 | 51 | 89 | 3.5 | 7.0 | 0.00 | 0.00 | 0.00 | 78 | 1014.8 |
| 20260507075504 | 51 | 70 | 4.3 | 7.0 | 0.00 | 0.00 | 0.00 | 78 | 1014.8 |
| 20260507075004 | 51 | 105 | 3.5 | 5.2 | 0.00 | 0.00 | 0.00 | 78 | 1014.8 |
| 20260507074003 | 50 | 90 | 1.7 | 7.0 | 0.00 | 0.00 | 0.00 | 79 | 1014.9 |
| 20260507073503 | 50 | 99 | 2.6 | 6.1 | 0.00 | 0.00 | 0.00 | 80 | 1014.8 |
| 20260507073004 | 49 | 90 | 2.6 | 4.3 | 0.00 | 0.00 | 0.00 | 80 | 1014.8 |
| 20260507072503 | 49 | 75 | 1.7 | 5.2 | 0.00 | 0.00 | 0.00 | 80 | 1014.8 |
| 20260507071503 | 49 | 104 | 5.2 | 7.8 | 0.00 | 0.00 | 0.00 | 80 | 1014.8 |
| 20260507071003 | 49 | 101 | 5.2 | 10.4 | 0.00 | 0.00 | 0.00 | 80 | 1014.7 |
| 20260507070504 | 48 | 88 | 4.3 | 7.8 | 0.00 | 0.00 | 0.00 | 80 | 1014.8 |
| 20260507070009 | 48 | 96 | 3.5 | 6.1 | 0.00 | 0.00 | 0.00 | 80 | 1014.7 |
| 20260507065504 | 48 | 89 | 4.3 | 7.8 | 0.00 | 0.00 | 0.00 | 80 | 1014.7 |
| 20260507065004 | 48 | 94 | 4.3 | 7.8 | 0.00 | 0.00 | 0.00 | 81 | 1014.6 |
| 20260507064503 | 48 | 101 | 0.9 | 6.1 | 0.00 | 0.00 | 0.00 | 81 | 1014.6 |
| 20260507063503 | 48 | 93 | 1.7 | 5.2 | 0.00 | 0.00 | 0.00 | 81 | 1014.6 |
| 20260507063004 | 47 | 107 | 1.7 | 2.6 | 0.00 | 0.00 | 0.00 | 81 | 1014.6 |
| 20260507062503 | 47 | 115 | 1.7 | 2.6 | 0.00 | 0.00 | 0.00 | 81 | 1014.5 |
| 20260507062003 | 47 | 112 | 1.7 | 2.6 | 0.00 | 0.00 | 0.00 | 82 | 1014.5 |
| 20260507061004 | 47 | 93 | 0.9 | 1.7 | 0.00 | 0.00 | 0.00 | 82 | 1014.4 |
| 20260507055503 | 47 | 88 | 0.9 | 2.6 | 0.00 | 0.00 | 0.00 | 81 | 1014.4 |
| 20260507054504 | 47 | 89 | 1.7 | 2.6 | 0.00 | 0.00 | 0.00 | 81 | 1014.4 |
| 20260507052504 | 47 | 93 | 1.7 | 5.2 | 0.00 | 0.00 | 0.00 | 81 | 1014.2 |
| 20260507052003 | 47 | 94 | 1.7 | 2.6 | 0.00 | 0.00 | 0.00 | 81 | 1014.2 |
| 20260507051503 | 47 | 82 | 3.5 | 6.1 | 0.00 | 0.00 | 0.00 | 81 | 1014.3 |
| 20260507051003 | 47 | 86 | 1.7 | 6.1 | 0.00 | 0.00 | 0.00 | 81 | 1014.3 |
| 20260507050504 | 47 | 94 | 2.6 | 5.2 | 0.00 | 0.00 | 0.00 | 81 | 1014.3 |
| 20260507050005 | 47 | 59 | 2.6 | 6.1 | 0.00 | 0.00 | 0.00 | 80 | 1014.3 |
| 20260507045503 | 47 | 75 | 1.7 | 5.2 | 0.00 | 0.00 | 0.00 | 80 | 1014.2 |
| 20260507045004 | 47 | 65 | 2.6 | 7.0 | 0.00 | 0.00 | 0.00 | 80 | 1014.2 |
| 20260507044503 | 47 | 94 | 2.6 | 7.0 | 0.00 | 0.00 | 0.00 | 80 | 1014.2 |
| 20260507044003 | 47 | 98 | 2.6 | 6.1 | 0.00 | 0.00 | 0.00 | 80 | 1014.2 |
| 20260507043504 | 47 | 82 | 1.7 | 6.1 | 0.00 | 0.00 | 0.00 | 80 | 1014.1 |
| 20260507043004 | 47 | 92 | 2.6 | 6.1 | 0.00 | 0.00 | 0.00 | 80 | 1014.1 |
| 20260507042504 | 47 | 80 | 1.7 | 7.8 | 0.00 | 0.00 | 0.00 | 80 | 1014.2 |
| 20260507041503 | 47 | 81 | 2.6 | 7.8 | 0.00 | 0.00 | 0.00 | 80 | 1014.2 |
| 20260507041003 | 47 | 91 | 2.6 | 6.1 | 0.00 | 0.00 | 0.00 | 79 | 1014.2 |
| 20260507040504 | 47 | 79 | 3.5 | 6.1 | 0.00 | 0.00 | 0.00 | 79 | 1014.2 |
| 20260507040004 | 47 | 67 | 2.6 | 5.2 | 0.00 | 0.00 | 0.00 | 79 | 1014.2 |
| 20260507035504 | 47 | 94 | 1.7 | 7.0 | 0.00 | 0.00 | 0.00 | 79 | 1014.2 |
| 20260507035004 | 47 | 102 | 2.6 | 7.8 | 0.00 | 0.00 | 0.00 | 79 | 1014.1 |
| 20260507034504 | 47 | 113 | 1.7 | 6.1 | 0.00 | 0.00 | 0.00 | 79 | 1014.0 |
| 20260507034004 | 47 | 86 | 2.6 | 4.3 | 0.00 | 0.00 | 0.00 | 79 | 1014.0 |
| 20260507033503 | 47 | 82 | 3.5 | 7.0 | 0.00 | 0.00 | 0.00 | 79 | 1014.1 |
| 20260507033004 | 48 | 112 | 1.7 | 5.2 | 0.00 | 0.00 | 0.00 | 79 | 1014.2 |
| 20260507032504 | 48 | 115 | 2.6 | 6.1 | 0.00 | 0.00 | 0.00 | 79 | 1014.1 |
| 20260507032004 | 48 | 75 | 2.6 | 6.1 | 0.00 | 0.00 | 0.00 | 79 | 1014.1 |
| 20260507031503 | 48 | 87 | 1.7 | 6.1 | 0.00 | 0.00 | 0.00 | 78 | 1014.1 |
| 20260507031004 | 48 | 80 | 2.6 | 5.2 | 0.00 | 0.00 | 0.00 | 78 | 1014.2 |
| 20260507030503 | 48 | 89 | 1.7 | 2.6 | 0.00 | 0.00 | 0.00 | 78 | 1014.1 |
| 20260507030004 | 48 | 89 | 1.7 | 5.2 | 0.00 | 0.00 | 0.00 | 78 | 1014.2 |
| 20260507025503 | 48 | 94 | 1.7 | 2.6 | 0.00 | 0.00 | 0.00 | 78 | 1014.2 |
| 20260507025004 | 48 | 96 | 2.6 | 7.0 | 0.00 | 0.00 | 0.00 | 78 | 1014.2 |
| 20260507024503 | 48 | 61 | 3.5 | 7.0 | 0.00 | 0.00 | 0.00 | 78 | 1014.2 |
| 20260507024004 | 48 | 97 | 2.6 | 7.0 | 0.00 | 0.00 | 0.00 | 77 | 1014.2 |
| 20260507023503 | 48 | 86 | 1.7 | 5.2 | 0.00 | 0.00 | 0.00 | 77 | 1014.2 |
| 20260507023004 | 48 | 91 | 1.7 | 2.6 | 0.00 | 0.00 | 0.00 | 77 | 1014.2 |
| 20260507022504 | 48 | 95 | 1.7 | 5.2 | 0.00 | 0.00 | 0.00 | 77 | 1014.2 |
| 20260507022004 | 48 | 96 | 0.9 | 5.2 | 0.00 | 0.00 | 0.00 | 77 | 1014.2 |
| 20260507021504 | 48 | 78 | 2.6 | 6.1 | 0.00 | 0.00 | 0.00 | 77 | 1014.2 |
| 20260507021004 | 48 | 95 | 4.3 | 6.1 | 0.00 | 0.00 | 0.00 | 77 | 1014.2 |
| 20260507020503 | 48 | 93 | 2.6 | 7.0 | 0.00 | 0.00 | 0.00 | 77 | 1014.2 |
| 20260507020004 | 48 | 97 | 1.7 | 2.6 | 0.00 | 0.00 | 0.00 | 76 | 1014.2 |
| 20260507015504 | 48 | 94 | 2.6 | 5.2 | 0.00 | 0.00 | 0.00 | 76 | 1014.2 |
| 20260507015004 | 49 | 90 | 2.6 | 6.1 | 0.00 | 0.00 | 0.00 | 76 | 1014.2 |
| 20260507014004 | 49 | 93 | 2.6 | 7.0 | 0.00 | 0.00 | 0.00 | 76 | 1014.2 |
| 20260507013503 | 49 | 96 | 3.5 | 7.8 | 0.00 | 0.00 | 0.00 | 76 | 1014.1 |
| 20260507013004 | 49 | 112 | 4.3 | 7.8 | 0.00 | 0.00 | 0.00 | 75 | 1014.2 |
| 20260507012504 | 49 | 87 | 3.5 | 6.1 | 0.00 | 0.00 | 0.00 | 75 | 1014.2 |
| 20260507012004 | 49 | 98 | 2.6 | 6.1 | 0.00 | 0.00 | 0.00 | 75 | 1014.2 |
| 20260507011504 | 49 | 94 | 4.3 | 6.1 | 0.00 | 0.00 | 0.00 | 75 | 1014.3 |
| 20260507011003 | 49 | 95 | 3.5 | 6.1 | 0.00 | 0.00 | 0.00 | 75 | 1014.3 |
| 20260507010504 | 49 | 103 | 1.7 | 7.0 | 0.00 | 0.00 | 0.00 | 74 | 1014.3 |
| 20260507010004 | 49 | 100 | 4.3 | 7.0 | 0.00 | 0.00 | 0.00 | 74 | 1014.3 |
| 20260507005504 | 49 | 109 | 2.6 | 6.1 | 0.00 | 0.00 | 0.00 | 74 | 1014.3 |
| 20260507004504 | 49 | 119 | 1.7 | 5.2 | 0.00 | 0.00 | 0.00 | 73 | 1014.2 |
| 20260507003503 | 50 | 86 | 2.6 | 7.0 | 0.00 | 0.00 | 0.00 | 73 | 1014.2 |
| 20260507003004 | 50 | 119 | 4.3 | 7.0 | 0.00 | 0.00 | 0.00 | 72 | 1014.2 |
| 20260507002504 | 50 | 99 | 2.6 | 7.0 | 0.00 | 0.00 | 0.00 | 72 | 1014.3 |
| 20260507002004 | 50 | 90 | 4.3 | 7.0 | 0.00 | 0.00 | 0.00 | 72 | 1014.2 |
| 20260507001504 | 50 | 93 | 2.6 | 7.0 | 0.00 | 0.00 | 0.00 | 71 | 1014.3 |
| 20260507001004 | 50 | 89 | 4.3 | 7.8 | 0.00 | 0.00 | 0.00 | 71 | 1014.3 |
| 20260507000503 | 50 | 102 | 4.3 | 7.0 | 0.00 | 0.00 | 0.00 | 71 | 1014.3 |
| 20260507000004 | 50 | 98 | 4.3 | 7.0 | 0.00 | 0.00 | 0.00 | 70 | 1014.3 |
| 20260506235503 | 50 | 104 | 2.6 | 7.0 | 0.00 | 0.00 | 0.00 | 70 | 1014.3 |
| 20260506235004 | 50 | 94 | 1.7 | 7.0 | 0.00 | 0.00 | 0.00 | 70 | 1014.3 |
| 20260506234503 | 50 | 88 | 4.3 | 7.8 | 0.00 | 0.00 | 0.00 | 69 | 1014.3 |
| 20260506234003 | 50 | 104 | 2.6 | 7.0 | 0.00 | 0.00 | 0.00 | 69 | 1014.2 |
| 20260506233504 | 50 | 103 | 3.5 | 7.0 | 0.00 | 0.00 | 0.00 | 69 | 1014.2 |
| 20260506233003 | 50 | 113 | 2.6 | 5.2 | 0.00 | 0.00 | 0.00 | 68 | 1014.2 |
| 20260506231504 | 51 | 99 | 2.6 | 6.1 | 0.00 | 0.00 | 0.00 | 67 | 1014.2 |
| 20260506231003 | 50 | 99 | 2.6 | 6.1 | 0.00 | 0.00 | 0.00 | 67 | 1014.2 |
| 20260506230503 | 50 | 106 | 2.6 | 6.1 | 0.00 | 0.00 | 0.00 | 67 | 1014.1 |
| 20260506230004 | 50 | 103 | 2.6 | 6.1 | 0.00 | 0.00 | 0.00 | 67 | 1014.2 |
| 20260506225504 | 50 | 96 | 1.7 | 7.0 | 0.00 | 0.00 | 0.00 | 67 | 1014.2 |
| 20260506225004 | 50 | 111 | 1.7 | 2.6 | 0.00 | 0.00 | 0.00 | 67 | 1014.2 |
| 20260506224503 | 50 | 111 | 1.7 | 5.2 | 0.00 | 0.00 | 0.00 | 67 | 1014.2 |
| 20260506224004 | 50 | 108 | 1.7 | 5.2 | 0.00 | 0.00 | 0.00 | 68 | 1014.1 |
| 20260506223504 | 50 | 97 | 0.9 | 2.6 | 0.00 | 0.00 | 0.00 | 68 | 1014.1 |
| 20260506223003 | 50 | 97 | 0.9 | 2.6 | 0.00 | 0.00 | 0.00 | 68 | 1014.1 |
| 20260506222503 | 50 | 97 | 0.9 | 2.6 | 0.00 | 0.00 | 0.00 | 67 | 1014.0 |
| 20260506222004 | 50 | 97 | 0.9 | 2.6 | 0.00 | 0.00 | 0.00 | 68 | 1014.0 |
| 20260506221504 | 51 | 97 | 0.9 | 2.6 | 0.00 | 0.00 | 0.00 | 67 | 1014.0 |
| 20260506221004 | 51 | 120 | 1.7 | 2.6 | 0.00 | 0.00 | 0.00 | 67 | 1014.0 |
| 20260506220503 | 51 | 134 | 0.9 | 2.6 | 0.00 | 0.00 | 0.00 | 67 | 1013.9 |
| 20260506220004 | 51 | 134 | 1.7 | 2.6 | 0.00 | 0.00 | 0.00 | 66 | 1013.9 |
| 20260506215504 | 51 | 135 | 1.7 | 2.6 | 0.00 | 0.00 | 0.00 | 66 | 1013.9 |
| 20260506215004 | 51 | 135 | 0.9 | 1.7 | 0.00 | 0.00 | 0.00 | 67 | 1013.9 |
| 20260506214504 | 51 | 135 | 0.9 | 1.7 | 0.00 | 0.00 | 0.00 | 67 | 1013.9 |
| 20260506214004 | 51 | 135 | 0.9 | 2.6 | 0.00 | 0.00 | 0.00 | 66 | 1013.9 |
| 20260506213503 | 51 | 135 | 1.7 | 2.6 | 0.00 | 0.00 | 0.00 | 66 | 1013.9 |
| 20260506213003 | 51 | 135 | 1.7 | 2.6 | 0.00 | 0.00 | 0.00 | 66 | 1013.9 |
| 20260506212503 | 52 | 135 | 1.7 | 2.6 | 0.00 | 0.00 | 0.00 | 65 | 1013.8 |
| 20260506211003 | 52 | 135 | 0.9 | 2.6 | 0.00 | 0.00 | 0.00 | 65 | 1013.8 |
| 20260506210503 | 52 | 135 | 0.9 | 2.6 | 0.00 | 0.00 | 0.00 | 65 | 1013.7 |
| 20260506210004 | 52 | 138 | 1.7 | 2.6 | 0.00 | 0.00 | 0.00 | 64 | 1013.7 |
| 20260506205504 | 52 | 138 | 0.0 | 0.0 | 0.00 | 0.00 | 0.00 | 64 | 1013.7 |
| 20260506205004 | 53 | 138 | 1.7 | 1.7 | 0.00 | 0.00 | 0.00 | 63 | 1013.7 |
| 20260506204503 | 53 | 138 | 1.7 | 2.6 | 0.00 | 0.00 | 0.00 | 62 | 1013.7 |
| 20260506203505 | 53 | 138 | 1.7 | 2.6 | 0.00 | 0.00 | 0.00 | 63 | 1013.7 |
| 20260506203003 | 53 | 138 | 0.9 | 2.6 | 0.00 | 0.00 | 0.00 | 63 | 1013.6 |
| 20260506202503 | 53 | 138 | 0.9 | 2.6 | 0.00 | 0.00 | 0.00 | 64 | 1013.7 |
| 20260506202003 | 54 | 138 | 0.9 | 1.7 | 0.00 | 0.00 | 0.00 | 62 | 1013.6 |
| 20260506201503 | 54 | 138 | 0.9 | 1.7 | 0.00 | 0.00 | 0.00 | 62 | 1013.6 |
| 20260506200503 | 54 | 138 | 0.9 | 1.7 | 0.00 | 0.00 | 0.00 | 62 | 1013.5 |
| 20260506200004 | 54 | 138 | 0.9 | 1.7 | 0.00 | 0.00 | 0.00 | 61 | 1013.4 |
| 20260506195504 | 54 | 138 | 1.7 | 2.6 | 0.00 | 0.00 | 0.00 | 61 | 1013.4 |
| 20260506194504 | 55 | 138 | 0.9 | 1.7 | 0.00 | 0.00 | 0.00 | 59 | 1013.4 |
| 20260506194003 | 55 | 138 | 0.9 | 2.6 | 0.00 | 0.00 | 0.00 | 59 | 1013.3 |
| 20260506193504 | 55 | 138 | 1.7 | 2.6 | 0.00 | 0.00 | 0.00 | 58 | 1013.3 |
| 20260506193004 | 55 | 137 | 1.7 | 2.6 | 0.00 | 0.00 | 0.00 | 58 | 1013.2 |
| 20260506192504 | 55 | 141 | 0.9 | 2.6 | 0.00 | 0.00 | 0.00 | 58 | 1013.2 |
| 20260506192004 | 55 | 134 | 0.9 | 1.7 | 0.00 | 0.00 | 0.00 | 57 | 1013.3 |
| 20260506191503 | 56 | 134 | 0.9 | 2.6 | 0.00 | 0.00 | 0.00 | 56 | 1013.2 |
| 20260506191003 | 56 | 134 | 0.9 | 2.6 | 0.00 | 0.00 | 0.00 | 57 | 1013.2 |
| 20260506190005 | 56 | 134 | 1.7 | 2.6 | 0.00 | 0.00 | 0.00 | 56 | 1013.2 |
| 20260506185505 | 56 | 134 | 1.7 | 2.6 | 0.00 | 0.00 | 0.00 | 56 | 1013.2 |
| 20260506185003 | 56 | 134 | 0.9 | 2.6 | 0.00 | 0.00 | 0.00 | 56 | 1013.1 |
| 20260506184503 | 56 | 134 | 1.7 | 2.6 | 0.00 | 0.00 | 0.00 | 57 | 1013.1 |
| 20260506183504 | 56 | 132 | 2.6 | 4.3 | 0.00 | 0.00 | 0.00 | 56 | 1013.1 |
| 20260506183004 | 56 | 138 | 1.7 | 2.6 | 0.00 | 0.00 | 0.00 | 55 | 1013.1 |
| 20260506182505 | 56 | 132 | 1.7 | 2.6 | 0.00 | 0.00 | 0.00 | 56 | 1013.1 |
| 20260506182004 | 57 | 135 | 2.6 | 2.6 | 0.00 | 0.00 | 0.00 | 55 | 1013.0 |
| 20260506181503 | 57 | 137 | 2.6 | 6.1 | 0.00 | 0.00 | 0.00 | 56 | 1013.0 |
| 20260506181004 | 57 | 124 | 0.9 | 2.6 | 0.00 | 0.00 | 0.00 | 57 | 1013.0 |
| 20260506180504 | 57 | 127 | 1.7 | 2.6 | 0.00 | 0.00 | 0.00 | 57 | 1013.0 |
| 20260506180005 | 57 | 138 | 1.7 | 4.3 | 0.00 | 0.00 | 0.00 | 56 | 1013.0 |
| 20260506175503 | 57 | 130 | 1.7 | 4.3 | 0.00 | 0.00 | 0.00 | 56 | 1012.9 |
| 20260506175003 | 57 | 125 | 1.7 | 4.3 | 0.00 | 0.00 | 0.00 | 55 | 1012.9 |
| 20260506174503 | 57 | 124 | 2.6 | 6.1 | 0.00 | 0.00 | 0.00 | 53 | 1012.9 |
| 20260506174003 | 57 | 113 | 3.5 | 7.0 | 0.00 | 0.00 | 0.00 | 52 | 1012.9 |
| 20260506173504 | 57 | 109 | 1.7 | 5.2 | 0.00 | 0.00 | 0.00 | 53 | 1012.9 |
| 20260506172503 | 58 | 65 | 1.7 | 2.6 | 0.00 | 0.00 | 0.00 | 53 | 1012.8 |
| 20260506172004 | 58 | 65 | 2.6 | 6.1 | 0.00 | 0.00 | 0.00 | 53 | 1012.8 |
| 20260506171503 | 58 | 117 | 1.7 | 2.6 | 0.00 | 0.00 | 0.00 | 52 | 1012.8 |
| 20260506171003 | 58 | 137 | 1.7 | 2.6 | 0.00 | 0.00 | 0.00 | 53 | 1012.7 |
| 20260506170004 | 58 | 138 | 1.7 | 2.6 | 0.00 | 0.00 | 0.00 | 54 | 1012.8 |
| 20260506165504 | 58 | 139 | 0.9 | 2.6 | 0.00 | 0.00 | 0.00 | 51 | 1012.7 |
| 20260506164503 | 59 | 113 | 4.3 | 7.0 | 0.00 | 0.00 | 0.00 | 53 | 1012.7 |
| 20260506164004 | 59 | 126 | 4.3 | 7.0 | 0.00 | 0.00 | 0.00 | 52 | 1012.7 |
| 20260506162503 | 59 | 127 | 2.6 | 6.1 | 0.00 | 0.00 | 0.00 | 50 | 1012.7 |
| 20260506162003 | 60 | 158 | 2.6 | 7.0 | 0.00 | 0.00 | 0.00 | 48 | 1012.7 |
| 20260506161503 | 60 | 113 | 4.3 | 7.8 | 0.00 | 0.00 | 0.00 | 49 | 1012.7 |
| 20260506161003 | 60 | 107 | 5.2 | 7.8 | 0.00 | 0.00 | 0.00 | 49 | 1012.7 |
| 20260506160504 | 60 | 92 | 2.6 | 7.0 | 0.00 | 0.00 | 0.00 | 47 | 1012.7 |
| 20260506160004 | 60 | 92 | 1.7 | 6.1 | 0.00 | 0.00 | 0.00 | 49 | 1012.8 |
| 20260506155503 | 61 | 136 | 2.6 | 5.2 | 0.00 | 0.00 | 0.00 | 49 | 1012.8 |
| 20260506155004 | 61 | 115 | 2.6 | 4.3 | 0.00 | 0.00 | 0.00 | 50 | 1012.8 |
| 20260506154004 | 60 | 128 | 4.3 | 7.8 | 0.00 | 0.00 | 0.00 | 52 | 1012.8 |
| 20260506153504 | 60 | 176 | 4.3 | 7.8 | 0.00 | 0.00 | 0.00 | 48 | 1012.8 |
| 20260506153004 | 61 | 149 | 4.3 | 7.8 | 0.00 | 0.00 | 0.00 | 47 | 1012.8 |
| 20260506152504 | 62 | 131 | 6.1 | 10.4 | 0.00 | 0.00 | 0.00 | 48 | 1012.8 |
| 20260506152004 | 63 | 169 | 4.3 | 7.0 | 0.00 | 0.00 | 0.00 | 47 | 1012.8 |
| 20260506151004 | 62 | 110 | 2.6 | 8.7 | 0.00 | 0.00 | 0.00 | 46 | 1012.9 |
| 20260506150504 | 62 | 96 | 4.3 | 7.8 | 0.00 | 0.00 | 0.00 | 47 | 1012.9 |
| 20260506145503 | 61 | 72 | 2.6 | 7.0 | 0.00 | 0.00 | 0.00 | 47 | 1012.9 |
| 20260506145004 | 62 | 61 | 4.3 | 8.7 | 0.00 | 0.00 | 0.00 | 46 | 1013.0 |
| 20260506144503 | 62 | 117 | 4.3 | 10.4 | 0.00 | 0.00 | 0.00 | 44 | 1013.0 |
| 20260506144004 | 62 | 94 | 3.5 | 8.7 | 0.00 | 0.00 | 0.00 | 48 | 1013.1 |
| 20260506143504 | 62 | 102 | 5.2 | 10.4 | 0.00 | 0.00 | 0.00 | 50 | 1013.0 |
| 20260506143003 | 62 | 75 | 6.1 | 10.4 | 0.00 | 0.00 | 0.00 | 49 | 1013.0 |
| 20260506142003 | 62 | 81 | 5.2 | 8.7 | 0.00 | 0.00 | 0.00 | 47 | 1013.1 |
| 20260506141504 | 62 | 123 | 4.3 | 7.8 | 0.00 | 0.00 | 0.00 | 49 | 1013.1 |
| 20260506141004 | 61 | 89 | 4.3 | 8.7 | 0.00 | 0.00 | 0.00 | 52 | 1013.2 |
| 20260506140004 | 61 | 59 | 2.6 | 7.8 | 0.00 | 0.00 | 0.00 | 52 | 1013.3 |
| 20260506135503 | 60 | 111 | 4.3 | 8.7 | 0.00 | 0.00 | 0.00 | 48 | 1013.4 |
| 20260506135004 | 60 | 114 | 3.5 | 7.0 | 0.00 | 0.00 | 0.00 | 48 | 1013.3 |
| 20260506134503 | 60 | 108 | 2.6 | 6.1 | 0.00 | 0.00 | 0.00 | 51 | 1013.3 |
| 20260506133503 | 60 | 83 | 6.1 | 10.4 | 0.00 | 0.00 | 0.00 | 47 | 1013.4 |
| 20260506133003 | 60 | 313 | 1.7 | 7.8 | 0.00 | 0.00 | 0.00 | 48 | 1013.4 |
| 20260506132505 | 60 | 70 | 5.2 | 8.7 | 0.00 | 0.00 | 0.00 | 47 | 1013.5 |
| 20260506132003 | 60 | 90 | 2.6 | 10.4 | 0.00 | 0.00 | 0.00 | 49 | 1013.4 |
| 20260506131504 | 61 | 90 | 4.3 | 8.7 | 0.00 | 0.00 | 0.00 | 48 | 1013.5 |
| 20260506131003 | 61 | 75 | 5.2 | 7.8 | 0.00 | 0.00 | 0.00 | 47 | 1013.4 |
| 20260506130504 | 62 | 127 | 6.1 | 10.4 | 0.00 | 0.00 | 0.00 | 46 | 1013.4 |
| 20260506130005 | 62 | 64 | 4.3 | 10.4 | 0.00 | 0.00 | 0.00 | 48 | 1013.5 |
| 20260506125504 | 62 | 122 | 3.5 | 11.3 | 0.00 | 0.00 | 0.00 | 47 | 1013.5 |
| 20260506124504 | 62 | 148 | 5.2 | 10.4 | 0.00 | 0.00 | 0.00 | 48 | 1013.5 |
| 20260506123504 | 61 | 97 | 8.7 | 13.0 | 0.00 | 0.00 | 0.00 | 48 | 1013.4 |
| 20260506123005 | 60 | 132 | 7.0 | 12.2 | 0.00 | 0.00 | 0.00 | 47 | 1013.4 |
| 20260506122504 | 60 | 125 | 7.8 | 10.4 | 0.00 | 0.00 | 0.00 | 49 | 1013.4 |
| 20260506122003 | 60 | 115 | 7.8 | 13.0 | 0.00 | 0.00 | 0.00 | 48 | 1013.4 |
| 20260506121503 | 60 | 117 | 9.6 | 13.9 | 0.00 | 0.00 | 0.00 | 47 | 1013.4 |
| 20260506121003 | 60 | 102 | 7.8 | 13.0 | 0.00 | 0.00 | 0.00 | 49 | 1013.4 |
| 20260506120504 | 61 | 97 | 6.1 | 11.3 | 0.00 | 0.00 | 0.00 | 45 | 1013.4 |
| 20260506120003 | 61 | 118 | 7.0 | 10.4 | 0.00 | 0.00 | 0.00 | 47 | 1013.4 |
| 20260506115003 | 59 | 122 | 4.3 | 11.3 | 0.00 | 0.00 | 0.00 | 55 | 1013.5 |
| 20260506114505 | 59 | 120 | 5.2 | 12.2 | 0.00 | 0.00 | 0.00 | 52 | 1013.5 |
| 20260506113504 | 58 | 108 | 5.2 | 10.4 | 0.00 | 0.00 | 0.00 | 51 | 1013.5 |
| 20260506113004 | 58 | 115 | 7.0 | 11.3 | 0.00 | 0.00 | 0.00 | 52 | 1013.6 |
| 20260506112503 | 58 | 103 | 6.1 | 10.4 | 0.00 | 0.00 | 0.00 | 50 | 1013.6 |
| 20260506112004 | 58 | 88 | 6.1 | 8.7 | 0.00 | 0.00 | 0.00 | 53 | 1013.6 |
| 20260506111503 | 57 | 103 | 8.7 | 11.3 | 0.00 | 0.00 | 0.00 | 53 | 1013.7 |
| 20260506110004 | 57 | 101 | 6.1 | 10.4 | 0.00 | 0.00 | 0.00 | 52 | 1013.8 |
| 20260506105503 | 57 | 91 | 5.2 | 10.4 | 0.00 | 0.00 | 0.00 | 53 | 1013.8 |
| 20260506104504 | 57 | 95 | 6.1 | 12.2 | 0.00 | 0.00 | 0.00 | 58 | 1013.8 |
| 20260506104005 | 57 | 114 | 6.1 | 10.4 | 0.00 | 0.00 | 0.00 | 58 | 1013.8 |
| 20260506103503 | 56 | 86 | 5.2 | 10.4 | 0.00 | 0.00 | 0.00 | 58 | 1013.8 |
| 20260506103003 | 55 | 114 | 3.5 | 8.7 | 0.00 | 0.00 | 0.00 | 59 | 1013.7 |
| 20260506102504 | 55 | 102 | 5.2 | 10.4 | 0.00 | 0.00 | 0.00 | 58 | 1013.8 |
| 20260506102004 | 55 | 114 | 4.3 | 10.4 | 0.00 | 0.00 | 0.00 | 58 | 1013.8 |
| 20260506101003 | 55 | 109 | 6.1 | 8.7 | 0.00 | 0.00 | 0.00 | 59 | 1013.9 |
| 20260506100504 | 54 | 117 | 3.5 | 7.8 | 0.00 | 0.00 | 0.00 | 60 | 1013.9 |
| 20260506100004 | 54 | 131 | 3.5 | 7.8 | 0.00 | 0.00 | 0.00 | 61 | 1013.9 |
| 20260506095504 | 53 | 122 | 4.3 | 7.8 | 0.00 | 0.00 | 0.00 | 62 | 1013.9 |
| 20260506095004 | 53 | 122 | 4.3 | 8.7 | 0.00 | 0.00 | 0.00 | 61 | 1013.9 |
| 20260506094504 | 53 | 93 | 2.6 | 7.8 | 0.00 | 0.00 | 0.00 | 62 | 1014.0 |
| 20260506094004 | 53 | 72 | 3.5 | 7.0 | 0.00 | 0.00 | 0.00 | 65 | 1014.0 |
| 20260506093503 | 52 | 108 | 2.6 | 7.0 | 0.00 | 0.00 | 0.00 | 64 | 1013.9 |
| 20260506093004 | 52 | 104 | 4.3 | 7.8 | 0.00 | 0.00 | 0.00 | 63 | 1013.9 |
| 20260506092503 | 52 | 111 | 4.3 | 8.7 | 0.00 | 0.00 | 0.00 | 64 | 1013.8 |
| 20260506092003 | 52 | 117 | 6.1 | 10.4 | 0.00 | 0.00 | 0.00 | 63 | 1013.9 |
| 20260506091504 | 52 | 92 | 5.2 | 8.7 | 0.00 | 0.00 | 0.00 | 64 | 1013.9 |
| 20260506091003 | 52 | 90 | 6.1 | 8.7 | 0.00 | 0.00 | 0.00 | 65 | 1013.9 |